Date String (YYYY-MM-DD hh:mm:ss) UTC,Instrument flags,absolute air pressure of the measurement (hPa),sample flow rate (lpm),inlet stack bypass flow (lpm),air temperature of the measurement (°C),ambient temperature measured by the external sensor (°C),aerosol sample conditioner tube jacket temperature (°C),OPC LED temperature (°C),internal box temperature (°C),relative humidity of the measurement (%),span deviation,mass concentration of particles derived from Lorenz-Mie calculation of OPC scattering (μg/m³),mass concentration of particles derived from Lorenz-Mie calculation of OPC scattering (μg/m³),mass concentration of particles derived from Lorenz-Mie calculation of OPC scattering (μg/m³)
DateTimeUTC,F1_M11,P_M11,Q1_M11,Q2_M11,T1_M11,T2_M11,T3_M11,T4_M11,T5_M11,U1_M11,ZSPAN_M11,X0_M11,X2_M11,X1_M11
2023-12-20 02:00:00,SystemResetWarning,0826.6,5.00,000.00,025.8,024.8,000.0,034.2,027.2,11.7,0000.0,0003.91,0000.71,0000.49
2023-12-20 02:01:00,SystemResetWarning,0826.6,5.00,000.00,025.8,024.8,000.0,034.2,027.1,11.8,0000.0,0004.03,0000.72,0000.50
2023-12-20 02:02:00,SystemResetWarning,0826.6,5.00,000.00,025.8,024.8,000.0,034.2,027.1,11.7,0000.0,0004.02,0000.72,0000.49
2023-12-20 02:03:00,SystemResetWarning,0826.6,5.00,000.00,025.8,024.8,000.0,034.2,027.1,11.8,0000.0,0004.15,0000.71,0000.49
2023-12-20 02:04:00,SystemResetWarning,0826.6,5.00,000.00,025.8,024.8,000.0,034.2,027.2,11.8,0000.0,0005.45,0000.69,0000.48
2023-12-20 02:05:00,SystemResetWarning,0826.6,5.00,000.00,025.8,024.7,000.0,034.2,027.1,11.8,0000.0,0005.47,0000.70,0000.48
2023-12-20 02:06:00,SystemResetWarning,0826.6,5.00,000.00,025.8,024.7,000.0,034.2,027.1,11.8,0000.0,0005.52,0000.71,0000.49
2023-12-20 02:07:00,SystemResetWarning,0826.6,4.99,000.00,025.8,024.7,000.0,034.2,027.1,11.8,0000.0,0005.56,0000.71,0000.49
2023-12-20 02:08:00,SystemResetWarning,0826.6,4.99,000.00,025.8,024.7,000.0,034.2,027.1,11.8,0000.0,0005.51,0000.69,0000.48
2023-12-20 02:09:00,SystemResetWarning,0826.7,5.00,000.00,025.8,024.7,000.0,034.2,027.1,11.8,0000.0,0004.43,0000.69,0000.47
2023-12-20 02:10:00,SystemResetWarning,0826.7,5.01,000.00,025.8,024.7,000.0,034.2,027.1,11.8,0000.0,0004.09,0000.68,0000.48
2023-12-20 02:11:00,SystemResetWarning,0826.6,5.01,000.00,025.8,024.7,000.0,034.1,027.1,11.9,0000.0,0002.84,0000.63,0000.47
2023-12-20 02:12:00,SystemResetWarning,0826.7,4.99,000.00,025.8,024.7,000.0,034.1,027.2,11.9,0000.0,0002.62,0000.64,0000.47
2023-12-20 02:13:00,SystemResetWarning,0826.7,5.01,000.00,025.8,024.7,000.0,034.1,027.1,11.7,0000.0,0002.81,0000.67,0000.47
2023-12-20 02:14:00,SystemResetWarning,0826.8,4.99,000.00,025.8,024.7,000.0,034.1,027.1,11.8,0000.0,0002.60,0000.66,0000.47
2023-12-20 02:15:00,SystemResetWarning,0826.8,4.99,000.00,025.8,024.7,000.0,034.1,027.1,11.8,0000.0,0001.32,0000.64,0000.47
2023-12-20 02:16:00,SystemResetWarning,0826.8,5.00,000.00,025.8,024.7,000.0,034.1,027.2,11.8,0000.0,0001.35,0000.64,0000.47
2023-12-20 02:17:00,SystemResetWarning,0826.8,5.00,000.00,025.8,024.8,000.0,034.1,027.2,11.9,0000.0,0001.31,0000.63,0000.47
2023-12-20 02:18:00,SystemResetWarning,0826.9,5.01,000.00,025.8,024.8,000.0,034.1,027.2,12.1,0000.0,0001.24,0000.63,0000.47
2023-12-20 02:19:00,SystemResetWarning,0826.9,4.99,000.00,025.8,024.8,000.0,034.1,027.2,12.1,0000.0,0001.22,0000.62,0000.46
2023-12-20 02:20:00,SystemResetWarning,0826.9,5.00,000.00,025.8,024.9,000.0,034.1,027.2,12.1,0000.0,0001.28,0000.64,0000.47
2023-12-20 02:21:00,SystemResetWarning,0826.9,5.00,000.00,025.8,024.9,000.0,034.1,027.2,12.0,0000.0,0001.27,0000.63,0000.47
2023-12-20 02:22:00,SystemResetWarning,0826.9,5.01,000.00,025.8,024.9,000.0,034.1,027.3,11.9,0000.0,0001.27,0000.63,0000.47
2023-12-20 02:23:00,SystemResetWarning,0826.9,5.01,000.00,025.8,025.0,000.0,034.2,027.2,11.9,0000.0,0001.18,0000.62,0000.47
2023-12-20 02:24:00,SystemResetWarning,0826.9,5.00,000.00,025.8,025.0,000.0,034.2,027.2,11.8,0000.0,0001.01,0000.59,0000.47
2023-12-20 02:25:00,SystemResetWarning,0827.0,5.01,000.00,025.8,025.0,000.0,034.2,027.3,11.8,0000.0,0000.99,0000.60,0000.48
2023-12-20 02:26:00,SystemResetWarning,0826.9,5.00,000.00,025.9,025.0,000.0,034.2,027.3,11.8,0000.0,0000.93,0000.60,0000.48
2023-12-20 02:27:00,SystemResetWarning,0827.0,5.00,000.00,025.9,025.0,000.0,034.2,027.3,11.8,0000.0,0000.90,0000.59,0000.48
2023-12-20 02:28:00,SystemResetWarning,0827.0,5.00,000.00,025.9,025.0,000.0,034.2,027.3,11.8,0000.0,0000.86,0000.58,0000.48
2023-12-20 02:29:00,SystemResetWarning,0826.9,5.00,000.00,025.9,025.1,000.0,034.2,027.2,11.9,0000.0,0000.84,0000.57,0000.48
2023-12-20 02:30:00,SystemResetWarning,0827.0,5.00,000.00,025.9,025.1,000.0,034.2,027.2,11.9,0000.0,0000.86,0000.58,0000.48
2023-12-20 02:31:00,SystemResetWarning,0827.0,5.00,000.00,025.9,025.1,000.0,034.2,027.3,11.9,0000.0,0000.77,0000.56,0000.47
2023-12-20 02:32:00,SystemResetWarning,0827.0,5.01,000.00,025.9,025.1,000.0,034.2,027.2,11.9,0000.0,0000.75,0000.55,0000.47
2023-12-20 02:33:00,SystemResetWarning,0827.0,5.00,000.00,025.8,025.1,000.0,034.2,027.2,11.9,0000.0,0000.76,0000.56,0000.47
2023-12-20 02:34:00,SystemResetWarning,0827.0,5.00,000.00,025.8,025.1,000.0,034.2,027.2,11.9,0000.0,0001.33,0000.57,0000.49
2023-12-20 02:35:00,SystemResetWarning,0827.0,5.00,000.00,025.8,025.1,000.0,034.2,027.2,11.9,0000.0,0001.64,0000.58,0000.49
2023-12-20 02:36:00,SystemResetWarning,0827.0,5.00,000.00,025.8,025.0,000.0,034.2,027.2,12.0,0000.0,0001.63,0000.59,0000.50
2023-12-20 02:37:00,SystemResetWarning,0827.0,5.00,000.00,025.8,025.0,000.0,034.2,027.2,11.9,0000.0,0001.70,0000.61,0000.51
2023-12-20 02:38:00,SystemResetWarning,0827.0,5.00,000.00,025.8,025.0,000.0,034.2,027.2,11.9,0000.0,0001.73,0000.62,0000.51
2023-12-20 02:39:00,SystemResetWarning,0827.0,5.00,000.00,025.8,025.0,000.0,034.2,027.2,11.9,0000.0,0001.76,0000.64,0000.52
2023-12-20 02:40:00,SystemResetWarning,0827.1,5.00,000.00,025.8,025.0,000.0,034.2,027.2,11.9,0000.0,0001.83,0000.67,0000.52
2023-12-20 02:41:00,SystemResetWarning,0827.1,5.00,000.00,025.8,025.0,000.0,034.2,027.2,11.9,0000.0,0001.87,0000.69,0000.53
2023-12-20 02:42:00,SystemResetWarning,0827.1,5.00,000.00,025.8,025.0,000.0,034.2,027.2,11.9,0000.0,0002.15,0000.72,0000.54
2023-12-20 02:43:00,SystemResetWarning,0827.1,5.00,000.00,025.8,025.0,000.0,034.2,027.2,11.9,0000.0,0002.21,0000.73,0000.54
2023-12-20 02:44:00,SystemResetWarning,0827.1,5.00,000.00,025.8,025.0,000.0,034.2,027.2,11.9,0000.0,0002.29,0000.76,0000.55
2023-12-20 02:45:00,SystemResetWarning,0827.1,5.01,000.00,025.8,025.0,000.0,034.2,027.2,12.0,0000.0,0002.15,0000.78,0000.55
2023-12-20 02:46:00,SystemResetWarning,0827.1,5.01,000.00,025.8,025.0,000.0,034.2,027.2,12.0,0000.0,0001.44,0000.76,0000.54
2023-12-20 02:47:00,SystemResetWarning,0827.0,5.00,000.00,025.8,025.0,000.0,034.2,027.3,12.0,0000.0,0001.42,0000.75,0000.54
2023-12-20 02:48:00,SystemResetWarning,0827.1,4.99,000.00,025.8,025.0,000.0,034.2,027.2,12.0,0000.0,0001.38,0000.73,0000.53
2023-12-20 02:49:00,SystemResetWarning,0827.1,4.99,000.00,025.8,025.0,000.0,034.2,027.2,12.1,0000.0,0002.26,0000.73,0000.54
2023-12-20 02:50:00,SystemResetWarning,0827.1,5.00,000.00,025.8,025.0,000.0,034.2,027.2,12.1,0000.0,0002.30,0000.72,0000.53
2023-12-20 02:51:00,SystemResetWarning,0827.1,5.00,000.00,025.8,025.0,000.0,034.2,027.2,12.1,0000.0,0002.27,0000.71,0000.54
2023-12-20 02:52:00,SystemResetWarning,0827.0,5.01,000.00,025.8,025.0,000.0,034.2,027.2,12.2,0000.0,0002.23,0000.70,0000.54
2023-12-20 02:53:00,SystemResetWarning,0827.1,5.00,000.00,025.8,025.0,000.0,034.2,027.2,12.3,0000.0,0002.02,0000.69,0000.55
2023-12-20 02:54:00,SystemResetWarning,0827.0,5.00,000.00,025.8,025.0,000.0,034.2,027.2,12.3,0000.0,0002.00,0000.70,0000.56
2023-12-20 02:55:00,SystemResetWarning,0827.0,4.99,000.00,025.8,025.0,000.0,034.2,027.1,12.3,0000.0,0002.45,0000.71,0000.57
2023-12-20 02:56:00,SystemResetWarning,0827.0,4.99,000.00,025.8,025.0,000.0,034.2,027.1,12.2,0000.0,0002.64,0000.68,0000.57
2023-12-20 02:57:00,SystemResetWarning,0827.0,5.00,000.00,025.7,025.0,000.0,034.1,027.0,12.2,0000.0,0002.67,0000.70,0000.57
2023-12-20 02:58:00,SystemResetWarning,0827.0,5.00,000.00,025.7,024.9,000.0,034.1,027.0,12.2,0000.0,0002.67,0000.70,0000.57
2023-12-20 02:59:00,SystemResetWarning,0827.1,5.00,000.00,025.7,024.9,000.0,034.1,026.9,12.2,0000.0,0003.07,0000.73,0000.57
